Simultaneous Nadir Overpasses (SNOs) Predictions

Prediction of SNOs between GOES-15 and LANDSAT-8 Satellite Orbit:

Table of predicted SNOs for the next 14.0 days since TLE Epoch: 1/30/2021
Index Date Time (GOES-15) GOES-15 Lat,Lon LANDSAT-8 Lat,Lon Distance(km) Time Diff (sec)
1 01/30/2021 06:45:58 0.05,-127.59 -0.19,-128.67 122.50 80
2 02/01/2021 06:36:26 0.04,-127.52 0.41,-125.71 205.67 80
3 02/01/2021 18:55:02 -0.08,-127.55 0.66,-130.87 378.52 80
4 02/03/2021 18:42:50 -0.07,-127.47 0.05,-127.91 50.98 80
5 02/05/2021 18:33:18 -0.07,-127.38 -0.56,-124.95 275.91 80
6 02/06/2021 06:52:03 0.11,-127.31 -0.49,-130.15 323.41 80
7 02/08/2021 06:42:31 0.11,-127.21 0.12,-127.19 2.64 80
8 02/10/2021 06:30:19 0.10,-127.12 0.74,-124.23 328.61 80
9 02/10/2021 18:48:55 -0.14,-127.15 0.33,-129.40 255.75 80
10 02/12/2021 18:39:23 -0.14,-127.05 -0.29,-126.44 70.18 80
